Погода в Аксае

Казахстан     51°09′55″N   53°01′18″E
темп.,
°C
ветер,
м/с
пор.,
м/с
влажн.,
%
обл.,
%
осадки,
мм/ч
давл.,
гПа
погр.,
м
13 августа, сб
сб1323:00+22св47365 0.0 1020106
02:00+20св35431 0.0 102064
05:00+18всв33540 0.0 102039
08:00+20св23500 0.0 1021133
11:00+26ссв33340 0.0 1020984
14:00+29с44250 0.0 10191759
17:00+31ссв44230 0.0 10172139
20:00+28ссв46280 0.0 1017126
14 августа, вс
вс1423:00+24св34390 0.0 101743
02:00+22св33480 0.0 101725
05:00+20всв45560 0.0 101779
08:00+22всв47560 0.0 1018244
11:00+27св56410 0.0 10171358
14:00+30св66310 0.0 10162146
17:00+31ссв76295 0.0 10152399
20:00+27ссв71033100 0.0 1015573
15 августа, пн
пн1523:00+23св71235100 0.0 1016422
02:00+20ссв51141100 0.0 1016301
05:00+17ссв595099 0.0 1016204
08:00+19св5750100 0.0 1017215
11:00+26в683055 0.0 1016931
14:00+31в89250 0.0 10161951
17:00+30в99244 0.0 10161783
20:00+28в610281 0.0 1016513
16 августа, вт
вт1623:00+22св510330 0.0 1018213
02:00+20всв612380 0.0 1019258
05:00+18всв511450 0.0 1020205
08:00+19всв611410 0.0 1020283
11:00+27всв810250 0.0 10201298
14:00+30в78200 0.0 10202144
17:00+31всв77190 0.0 10192295
20:00+28всв58230 0.0 1019186
17 августа, ср
ср1723:00+23всв714384 0.0 1021349
02:00+21всв715415 0.0 1021368
05:00+18всв511520 0.0 1021205
08:00+19всв58495 0.0 1022183
11:00+27в562534 0.0 1021789
14:00+31в44196 0.0 10201983
17:00+32в321842 0.0 10192542
20:00+29всв3422100 0.0 101855